Content
SEND FEEDBACK

Daily
Averages
Monthly
Summary
United States of America

AGAT, GUAM


Home > North America > United States > Guam
Elevation: 364 feet     Latitude: 13 33N     Longitude: 144 50E

WEATHER
 
SELECT A DAY
Number of Records: 214,100;   Date Range: 1/1/95 - 10/29/14
 
SHARE

PRINT THIS DATA

[ ← Previous Day ]
WEATHER ALMANAC - JUNE 14, 2013
[ Next Day → ]
[ °C ]   °F
Weather ElementAverageHighLow
Temperature83.5 °F88 °F (9:54 am)80.6 °F (10:28 am)
Dewpoint76.9 °F80.6 °F (10:39 am)73.9 °F (2:54 pm)
Humidity80.7 %89 % (12:50 am)69 % (2:54 pm)
Barometer29.81 in29.86 in (10:54 pm)29.76 in (3:54 am)
Wind Speed10 mph18.4 mph (10:22 am)
Wind Gust25.3 mph (11:54 am)
Weather ElementAverage
Visibility9.1 mi
Wind DirectionE (94.4 °)

Weather ElementTotal
Precipitation0.55 in
Cooling Degree Days19.3 (Base 65)
Growing Degree Days34.3 (Base 50)
Averaged from 43 records on June 14, 2013
WEATHER CONDITIONS BREAKOUT
WIND DIRECTION BREAKOUT
WEATHER BY HOUR - JUNE 14, 2013
[ °C ]   °F
Local TimeTemperatureDewpointHumidityBarometerVisibilityWind DirectionWind SpeedGust SpeedPrecipitationEventsConditions
12:26 AM82.4 °F77.0 °F84 %29.82 in10.0 miEast (100°)5.8 mphOvercast
12:50 AM82.4 °F78.8 °F89 %29.81 in10.0 miEast (80°)4.6 mphOvercast
12:54 AM82.9 °F78.1 °F85 %29.79 in10.0 miEast (80°)4.6 mphOvercast
1:54 AM82.0 °F77.0 °F85 %29.78 in10.0 miEast (80°)4.6 mphOvercast
2:04 AM82.4 °F77.0 °F84 %29.80 in10.0 miEast (80°)3.5 mphOvercast
2:54 AM82.0 °F77.0 °F85 %29.77 in10.0 miEast (100°)4.6 mphOvercast
3:06 AM82.4 °F77.0 °F84 %29.79 in10.0 miEast (90°)4.6 mphPartly Cloudy
3:54 AM82.9 °F77.0 °F82 %29.76 in10.0 miEast (100°)6.9 mphPartly Cloudy
4:33 AM82.4 °F77.0 °F84 %29.78 in10.0 miEast (90°)4.6 mphScattered Clouds
4:42 AM82.4 °F77.0 °F84 %29.78 in10.0 miEast (80°)6.9 mphMostly Cloudy
4:52 AM82.4 °F77.0 °F84 %29.78 in10.0 miEast (80°)8.1 mphScattered Clouds
4:54 AM82.9 °F77.0 °F82 %29.76 in10.0 miEast (80°)6.9 mphScattered Clouds
5:01 AM82.4 °F77.0 °F84 %29.78 in10.0 miEast (80°)5.8 mphMostly Cloudy
5:54 AM82.0 °F77.0 °F85 %29.78 in10.0 miEast (90°)9.2 mph0.02 inScattered Clouds
6:54 AM82.9 °F78.1 °F85 %29.80 in10.0 miEast (90°)6.9 mphPartly Cloudy
7:54 AM84.9 °F78.1 °F80 %29.81 in10.0 miEast (90°)9.2 mphPartly Cloudy
8:54 AM86.0 °F77.0 °F74 %29.82 in10.0 miESE (110°)12.7 mph21.9 mph0.00 inPartly Cloudy
9:54 AM88.0 °F77.0 °F70 %29.81 in10.0 miEast (90°)16.1 mph24.2 mphScattered Clouds
10:17 AM84.2 °F75.2 °F74 %29.84 in6.0 miEast (90°)17.3 mph23.0 mphHaze
10:22 AM82.4 °F75.2 °F79 %29.85 in1.8 miESE (110°)18.4 mph24.2 mph0.02 inRainHeavy Rain
10:28 AM80.6 °F75.2 °F84 %29.83 in3.0 miEast (100°)10.4 mph24.2 mph0.14 inRainHeavy Rain
10:39 AM84.2 °F80.6 °F89 %29.83 in9.0 miESE (110°)12.7 mph23.0 mph0.16 inRainLight Rain
10:54 AM82.0 °F77.0 °F85 %29.82 in6.0 miESE (110°)15.0 mph23.0 mph0.16 inRainLight Rain
10:59 AM80.6 °F77.0 °F89 %29.84 in2.5 miESE (120°)11.5 mph21.9 mph0.01 inRainHeavy Rain
11:07 AM82.4 °F78.8 °F89 %29.84 in7.0 miESE (110°)13.8 mph23.0 mph0.02 inRainLight Rain
11:54 AM84.9 °F79.0 °F82 %29.80 in10.0 miEast (100°)17.3 mph25.3 mph0.02 inMostly Cloudy
12:54 PM87.1 °F77.0 °F72 %29.79 in10.0 miESE (110°)13.8 mph24.2 mphPartly Cloudy
1:54 PM86.0 °F77.0 °F74 %29.79 in10.0 miESE (110°)13.8 mph21.9 mphMostly Cloudy
2:38 PM87.8 °F77.0 °F70 %29.81 in10.0 miESE (110°)11.5 mphMostly Cloudy
2:45 PM87.8 °F77.0 °F70 %29.81 in10.0 miESE (110°)17.3 mph21.9 mphScattered Clouds
2:54 PM84.9 °F73.9 °F69 %29.79 in10.0 miEast (100°)16.1 mph25.3 mphMostly Cloudy
3:05 PM84.2 °F75.2 °F74 %29.81 in10.0 miEast (90°)15.0 mph23.0 mphPartly Cloudy
3:54 PM86.0 °F75.0 °F70 %29.77 in10.0 miESE (110°)15.0 mph20.7 mphPartly Cloudy
4:54 PM86.0 °F75.9 °F72 %29.78 in10.0 miEast (100°)11.5 mph19.6 mphScattered Clouds
5:54 PM84.9 °F77.0 °F77 %29.80 in10.0 miEast (90°)11.5 mphMostly Cloudy
6:23 PM82.4 °F75.2 °F79 %29.83 in7.0 miEast (80°)16.1 mph25.3 mph0.00 inRainLight Rain
6:28 PM82.4 °F75.2 °F79 %29.83 in8.0 miEast (80°)15.0 mph25.3 mph0.00 inRainLight Rain
6:54 PM81.0 °F75.0 °F82 %29.81 in10.0 miEast (100°)6.9 mph0.00 inMostly Cloudy
7:54 PM82.0 °F75.9 °F82 %29.83 in10.0 miEast (90°)4.6 mphScattered Clouds
8:54 PM82.0 °F77.0 °F85 %29.84 in10.0 miEast (90°)5.8 mphScattered Clouds
9:54 PM82.9 °F78.1 °F85 %29.85 in10.0 miEast (80°)5.8 mphScattered Clouds
10:54 PM82.9 °F78.1 °F85 %29.86 in10.0 miEast (90°)4.6 mphPartly Cloudy
11:54 PM82.9 °F77.0 °F82 %29.84 in10.0 miEast (80°)5.8 mphPartly Cloudy
Hourly data recorded from PGUM, located miles away from Agat, Guam







STORIES FROM OUR PARTNERS